Home > Weather > Christiansted > Past weeks

Flag for US Virgin Islands Past Weather in Christiansted, US Virgin Islands — Yesterday and Last 2 Weeks

Now
82 °F

Passing clouds.


Feels Like: 87 °F
Forecast: 79 / 87 °F
Wind: 10 mph from East

Location: Christiansted / Henry E. Rohlsen Airport - Saint Croix

Current Time: Jun 30, 2016 at 10:50:16 PM

Latest Report: Jun 30, 2016 at 9:53 PM


Visibility: 10 mi

Pressure: 30.08 "Hg

Humidity: 74%

Dew Point: 73 °F

Location of ChristianstedLocation

Past Weather in Christiansted — Graph

°F

Christiansted Temperature Yesterday

Maximum temperature yesterday: 89 °F (at 10:53 AM)
Minimum temperature yesterday: 79 °F (at 12:53 AM)
Average temperature yesterday: 84 °F

High & Low Weather Summary for the Past Weeks

 TemperatureHumidityPressure
High90 °F (Jun 24, 11:53 AM)94% (Jun 19, 4:41 AM)30.16 "Hg (Jun 19, 4:41 AM)
Low75 °F (Jun 27, 3:53 AM)56% (Jun 30, 11:53 AM)29.99 "Hg (Jun 19, 4:53 PM)
Average83 °F72%30.05 "Hg
* Reported Jun 15 9:53 PM — Jun 30 9:53 PM, Christiansted, Weather by CustomWeather, © 2016

Note: Actual official high and low records may vary slightly from our data, if they occured in-between our weather recording intervals... More about our weather records

Advertising

Christiansted Weather History for the Previous 24 Hours

Scroll right to see more
 ConditionsComfort  
Time TempWeatherWind HumidityBarometerVisibility
9:53 PM
Thu, Jun 30
82 °FPassing clouds.10 mph74%30.08 "Hg10 mi
8:53 PM81 °FPassing clouds.8 mph72%30.07 "Hg10 mi
7:53 PM82 °FPassing clouds.9 mph70%30.06 "Hg10 mi
6:53 PM83 °FScattered clouds.12 mph70%30.05 "Hg10 mi
5:53 PM85 °FPassing clouds.15 mph61%30.03 "Hg10 mi
4:53 PM86 °FScattered clouds.15 mph63%30.03 "Hg10 mi
3:53 PM88 °FScattered clouds.15 mph59%30.03 "Hg10 mi
2:53 PM89 °FScattered clouds.14 mph59%30.04 "Hg10 mi
1:53 PM89 °FPassing clouds.16 mph57%30.06 "Hg10 mi
12:53 PM90 °FPassing clouds.14 mph56%30.06 "Hg10 mi
11:53 AM90 °FScattered clouds.17 mph56%30.07 "Hg10 mi
10:53 AM88 °FScattered clouds.17 mph59%30.08 "Hg10 mi
9:53 AM87 °FScattered clouds.17 mph61%30.08 "Hg10 mi
8:53 AM87 °FScattered clouds.18 mph61%30.07 "Hg10 mi
7:53 AM85 °FScattered clouds.17 mph61%30.06 "Hg10 mi
6:53 AM83 °FScattered clouds.15 mph70%30.06 "Hg10 mi
6:36 AM82 °FPartly sunny.14 mph70%30.06 "Hg10 mi
5:53 AM81 °FMostly cloudy.9 mph72%30.04 "Hg10 mi
4:53 AM81 °FOvercast.9 mph72%30.03 "Hg10 mi
4:36 AM81 °FPassing clouds.12 mph70%30.04 "Hg10 mi
3:53 AM81 °FPassing clouds.13 mph72%30.03 "Hg10 mi
2:53 AM80 °FOvercast.13 mph76%30.03 "Hg10 mi
1:53 AM81 °FMostly cloudy.13 mph74%30.03 "Hg10 mi
12:53 AM81 °FMostly cloudy.12 mph74%30.05 "Hg10 mi
11:53 PM
Wed, Jun 29
81 °FOvercast.10 mph77%30.07 "Hg10 mi
10:53 PM81 °FOvercast.9 mph74%30.08 "Hg10 mi
10:00 PM81 °FOvercast.10 mph77%30.08 "Hg10 mi
Weather by CustomWeather, © 2016

See weather overviewHow to use our weather pages